GFSNGP_700_temp_072.txt.gz
Temp
-2 -2 -1 -1 0 1 1 2 4 5 4 4 5 5 6 6 6 6 6 6 6 6 6 6 5 6 7 7 7 7 7 7 7 7 6 6 6 6 5 5 5 5 5 4
-2 -2 -1 -1 1 1 0 1 4 5 4 4 4 4 5 4 4 5 5 5 5 5 6 5 5 5 6 6 7 7 7 7 7 7 7 6 6 6 5 5 5 5 5 4
-4 -2 -2 1 -0 0 1 2 2 2 2 3 3 3 3 4 4 5 4 5 5 5 5 5 5 5 4 4 5 6 7 7 7 7 7 7 7 6 6 6 5 5 5 5
-4 -3 -1 1 1 1 1 1 2 0 0 1 2 2 2 2 3 3 3 4 5 5 5 5 5 6 5 6 5 5 6 7 7 7 7 7 7 7 7 6 6 6 6 6
-4 -3 -2 -1 -1 0 0 -0 -0 -0 -0 0 2 2 0 0 1 1 2 3 3 4 4 4 4 5 5 5 5 5 4 3 4 6 6 6 6 6 6 6 6 6 6 5
-4 -3 -2 -2 -2 -1 -1 -2 -2 -2 -1 0 0 -0 -1 0 1 -0 -1 0 2 3 3 3 4 4 4 5 5 5 5 4 5 5 5 5 5 5 6 6 6 6 5 5
-4 -3 -1 -0 -2 -2 -3 -2 -2 -2 -1 0 1 -1 0 0 0 -1 -1 -1 1 2 2 2 2 2 3 4 4 5 5 4 4 4 4 4 4 5 5 5 6 6 6 5
-3 -2 -1 -1 -2 -1 -2 -2 -3 -2 -1 -0 -0 -0 -0 -0 0 0 0 1 1 0 1 1 2 2 2 2 2 3 4 3 3 4 3 3 3 3 4 4 4 5 5 4
-2 -2 -2 -2 -1 -2 -3 -3 -3 -2 -2 -1 -1 -1 -1 -1 -0 -0 0 0 -0 -0 -0 0 0 1 1 1 2 2 2 3 3 4 4 4 3 3 3 3 2 1 2 4
-2 -2 -3 -3 -2 -3 -3 -2 -2 -2 -2 -2 -2 -1 -1 -1 -1 -1 -1 -0 -0 -0 -0 -0 -0 -0 0 0 0 1 2 2 2 2 2 2 3 3 3 1 2 2 1 1
-3 -3 -3 -4 -3 -3 -3 -3 -3 -3 -3 -2 -2 -2 -2 -2 -2 -1 -1 -1 -1 -1 -0 -0 -0 -1 -1 -0 -0 -0 -1 -1 -0 0 1 1 1 1 1 1 1 1 0 -0
-4 -4 -5 -5 -4 -4 -4 -3 -3 -3 -3 -3 -3 -3 -3 -3 -2 -2 -2 -2 -2 -2 -2 -2 -2 -2 -2 -1 -1 -1 -1 -1 -1 -1 -1 -1 -0 -0 -0 0 0 0 -0 -0
-4 -4 -4 -4 -4 -4 -4 -4 -4 -4 -4 -4 -3 -4 -3 -3 -3 -3 -2 -3 -2 -2 -2 -2 -2 -2 -2 -2 -2 -2 -1 -2 -1 -2 -2 -1 -3 -3 -4 -4 -3 -2 -2 -2
-4 -4 -4 -4 -4 -4 -4 -4 -4 -4 -4 -4 -4 -4 -4 -3 -3 -3 -3 -3 -3 -3 -3 -3 -2 -3 -4 -4 -4 -3 -3 -3 -3 -3 -4 -4 -4 -4 -4 -4 -4 -4 -4 -4
-5 -5 -5 -4 -4 -4 -4 -4 -4 -4 -4 -4 -4 -4 -4 -4 -4 -4 -4 -4 -4 -5 -5 -6 -6 -5 -5 -5 -5 -5 -4 -4 -4 -5 -5 -5 -5 -5 -5 -5 -6 -6 -6 -7
-5 -5 -5 -5 -5 -5 -5 -5 -5 -4 -4 -4 -5 -5 -5 -5 -5 -5 -5 -5 -5 -6 -6 -6 -6 -6 -6 -6 -6 -6 -6 -6 -6 -6 -7 -7 -8 -8 -9 -9 -9 -9 -10 -10
-6 -6 -6 -6 -5 -5 -5 -5 -5 -5 -5 -5 -6 -6 -6 -6 -6 -6 -6 -7 -7 -7 -8 -8 -8 -8 -8 -8 -9 -9 -9 -9 -9 -9 -9 -9 -10 -10 -10 -10 -11 -10 -10 -10
-6 -5 -6 -6 -6 -6 -6 -6 -6 -6 -6 -7 -7 -7 -7 -8 -8 -8 -9 -9 -9 -10 -10 -10 -10 -10 -10 -10 -11 -11 -11 -11 -11 -11 -11 -10 -11 -11 -11 -11 -11 -11 -11 -12
-6 -7 -7 -7 -7 -7 -7 -8 -8 -8 -8 -8 -9 -9 -10 -10 -10 -11 -11 -11 -11 -12 -12 -12 -11 -12 -11 -12 -12 -12 -12 -12 -12 -12 -12 -12 -12 -12 -12 -12 -12 -12 -12 -13
-8 -8 -8 -8 -9 -9 -9 -9 -10 -10 -10 -11 -11 -11 -12 -12 -12 -13 -13 -13 -13 -13 -13 -13 -13 -13 -12 -13 -13 -13 -13 -12 -12 -13 -13 -13 -13 -13 -13 -13 -13 -13 -14 -14
-10 -10 -10 -10 -10 -11 -11 -12 -12 -12 -13 -13 -13 -13 -14 -14 -14 -14 -14 -14 -14 -13 -13 -13 -14 -14 -13 -13 -13 -13 -13 -13 -13 -13 -14 -14 -14 -14 -15 -15 -15 -15 -16 -16
-12 -12 -12 -12 -13 -13 -13 -14 -14 -14 -14 -14 -14 -14 -14 -14 -14 -14 -14 -14 -14 -14 -14 -14 -14 -14 -14 -14 -14 -14 -14 -14 -14 -15 -15 -15 -15 -16 -16 -16 -16 -17 -17 -17
-13 -13 -14 -14 -14 -14 -14 -14 -15 -15 -15 -15 -15 -15 -14 -15 -15 -15 -15 -15 -15 -14 -14 -14 -14 -15 -15 -15 -15 -15 -15 -15 -16 -16 -16 -16 -17 -17 -17 -17 -18 -18 -18 -18
-14 -14 -14 -14 -14 -14 -15 -15 -15 -15 -15 -15 -15 -15 -15 -15 -16 -15 -16 -15 -15 -16 -16 -16 -16 -16 -16 -17 -17 -17 -17 -17 -17 -17 -18 -18 -18 -18 -18 -18 -19 -19 -19 -19
-14 -14 -14 -15 -15 -15 -15 -16 -16 -16 -16 -16 -16 -16 -16 -16 -16 -16 -16 -16 -16 -17 -17 -17 -17 -17 -18 -18 -18 -18 -18 -18 -18 -18 -19 -19 -19 -19 -19 -19 -20 -20 -20 -20
-15 -15 -16 -16 -16 -16 -16 -17 -16 -16 -17 -17 -17 -17 -17 -17 -17 -17 -17 -18 -18 -18 -18 -18 -18 -18 -18 -18 -18 -19 -19 -19 -19 -19 -19 -20 -20 -20 -20 -20 -20 -21 -21 -21
-16 -16 -16 -17 -17 -17 -17 -17 -17 -17 -18 -18 -18 -18 -18 -18 -18 -19 -19 -19 -19 -19 -19 -19 -19 -19 -19 -19 -19 -19 -19 -19 -20 -20 -20 -20 -20 -21 -21 -21 -22 -22 -22 -23

GFSNGP_700_temp_075.txt.gz
Temp
-3 -3 -3 -3 -2 -2 -1 -1 -0 2 3 1 2 3 3 5 5 5 5 6 5 4 4 5 5 5 6 6 6 6 6 7 7 6 6 6 5 5 5 5 5 5 5 5
-3 -3 -3 -3 -2 -2 -1 -1 -1 -0 0 1 1 1 1 5 5 6 5 5 5 5 5 4 4 4 5 5 5 5 6 6 6 7 7 6 6 5 5 5 5 5 5 5
-4 -3 -3 -3 -2 -1 -1 -1 -0 -0 -0 1 0 -0 0 4 4 5 5 5 5 5 5 5 5 4 4 5 5 6 6 6 5 5 6 6 7 6 6 6 5 5 5 4
-4 -3 -2 -2 -1 -1 -1 -1 -1 -1 -0 -0 -0 -1 -0 1 3 4 4 5 4 5 4 4 4 4 3 4 5 5 5 5 5 5 5 5 6 6 7 6 6 6 6 5
-4 -4 -3 -2 -1 -1 -1 -1 -1 -0 -0 -2 -1 -1 1 -0 1 1 2 3 4 4 4 4 4 4 4 4 4 4 5 5 5 5 5 5 4 4 6 6 6 6 6 6
-4 -4 -2 -2 -2 -2 -1 -1 -1 -1 -1 -1 -2 -1 -2 -1 -1 -0 2 4 4 2 2 2 3 4 4 4 3 4 4 4 4 4 4 4 4 4 4 4 4 4 5 5
-4 -4 -3 -2 -2 -2 -2 -3 -2 -3 -3 -2 -1 -2 -2 -2 0 0 1 2 1 1 1 1 2 2 2 2 3 3 3 3 3 3 4 3 3 3 3 3 3 3 3 3
-5 -4 -3 -2 -2 -2 -3 -2 -3 -2 -3 -2 -1 -1 -0 -0 -0 -1 -0 -0 0 0 -0 -0 0 1 1 1 2 2 2 2 2 3 3 3 3 3 2 2 2 2 2 2
-3 -3 -3 -2 -2 -3 -3 -2 -3 -3 -3 -2 -1 -1 -1 -0 -0 -0 -0 -0 -0 -0 -0 0 0 0 0 0 0 1 1 1 2 3 3 2 2 2 2 2 2 2 2 2
-3 -4 -3 -3 -3 -3 -3 -4 -4 -3 -2 -2 -2 -1 -1 -1 -1 -1 -0 -1 -1 -1 -0 -0 0 -0 -0 -0 -0 -0 -0 -0 0 0 1 2 2 2 2 2 1 -0 1 0
-4 -5 -4 -4 -4 -5 -5 -4 -5 -3 -3 -2 -2 -2 -2 -2 -2 -2 -2 -1 -1 -1 -1 -1 -1 -1 -1 -1 -1 -1 -1 -1 -1 -1 -1 -0 -1 0 -1 -1 -1 -1 0 -0
-6 -5 -5 -5 -5 -5 -4 -4 -3 -3 -3 -3 -3 -3 -3 -3 -3 -2 -2 -2 -1 -1 -1 -1 -1 -2 -2 -2 -2 -1 -1 -2 -2 -3 -2 -2 -2 -1 -1 -1 -1 -2 -2 -2
-6 -6 -6 -6 -6 -4 -4 -4 -4 -4 -4 -4 -4 -3 -3 -3 -3 -3 -2 -2 -2 -2 -2 -2 -2 -2 -2 -2 -2 -2 -1 -2 -3 -4 -3 -3 -2 -2 -2 -3 -3 -3 -4 -4
-7 -7 -6 -6 -5 -4 -4 -5 -4 -4 -4 -4 -3 -3 -3 -3 -3 -3 -3 -3 -3 -3 -3 -3 -3 -3 -3 -3 -3 -4 -4 -5 -4 -4 -4 -4 -4 -4 -5 -5 -5 -5 -5 -6
-5 -5 -5 -5 -5 -5 -5 -5 -5 -5 -4 -4 -4 -4 -4 -4 -5 -5 -5 -5 -5 -5 -5 -5 -5 -5 -5 -5 -6 -6 -6 -6 -6 -6 -6 -7 -7 -7 -7 -7 -7 -8 -8 -9
-5 -5 -6 -6 -5 -5 -5 -5 -5 -4 -4 -5 -5 -5 -5 -5 -6 -6 -6 -6 -6 -6 -6 -7 -7 -7 -8 -8 -8 -8 -8 -8 -8 -9 -9 -9 -9 -9 -9 -10 -10 -10 -10 -10
-6 -6 -6 -5 -5 -5 -5 -5 -5 -5 -6 -6 -6 -6 -6 -7 -7 -8 -8 -8 -9 -9 -9 -9 -9 -10 -10 -10 -10 -10 -10 -10 -10 -10 -10 -11 -11 -11 -11 -11 -11 -11 -11 -11
-6 -6 -6 -6 -6 -6 -6 -6 -6 -6 -7 -7 -7 -8 -8 -9 -9 -10 -10 -10 -11 -11 -11 -11 -11 -11 -11 -11 -12 -12 -12 -12 -12 -12 -12 -12 -12 -12 -12 -12 -12 -12 -12 -12
-7 -7 -6 -6 -7 -7 -7 -7 -8 -8 -8 -9 -9 -9 -10 -11 -11 -12 -12 -12 -12 -12 -12 -13 -13 -13 -13 -13 -13 -13 -13 -13 -13 -13 -13 -13 -12 -12 -12 -12 -13 -13 -13 -13
-8 -8 -8 -8 -8 -9 -9 -9 -9 -10 -10 -11 -11 -12 -12 -13 -13 -13 -13 -13 -13 -14 -14 -14 -14 -13 -13 -14 -14 -13 -13 -13 -13 -13 -13 -13 -13 -14 -14 -14 -14 -14 -15 -15
-9 -9 -9 -10 -10 -11 -11 -11 -12 -12 -12 -13 -13 -14 -14 -14 -14 -14 -14 -14 -14 -14 -14 -14 -14 -14 -14 -14 -14 -14 -14 -14 -14 -14 -14 -14 -15 -15 -15 -15 -16 -16 -16 -16
-11 -11 -11 -12 -12 -12 -13 -13 -13 -14 -14 -14 -14 -14 -15 -15 -15 -14 -15 -15 -15 -15 -15 -15 -14 -14 -14 -14 -15 -15 -15 -15 -15 -16 -16 -16 -16 -16 -17 -17 -17 -17 -17 -18
-12 -12 -13 -13 -13 -14 -14 -14 -14 -14 -15 -15 -15 -15 -15 -15 -15 -15 -15 -15 -15 -15 -15 -15 -15 -15 -15 -16 -16 -16 -16 -16 -17 -17 -17 -17 -17 -17 -17 -18 -18 -18 -18 -18
-14 -14 -14 -14 -15 -15 -15 -15 -15 -15 -16 -16 -16 -16 -15 -16 -16 -16 -16 -16 -16 -16 -16 -16 -16 -17 -17 -17 -17 -17 -17 -17 -17 -17 -18 -18 -18 -18 -19 -19 -19 -19 -19 -19
-14 -14 -15 -15 -15 -16 -16 -16 -16 -16 -16 -16 -17 -17 -17 -16 -16 -17 -17 -17 -17 -17 -17 -18 -18 -18 -18 -18 -18 -18 -18 -18 -18 -18 -19 -19 -19 -19 -19 -19 -19 -20 -20 -20
-15 -15 -16 -16 -16 -16 -17 -17 -17 -17 -17 -17 -17 -17 -17 -17 -18 -18 -18 -18 -18 -19 -19 -19 -19 -19 -19 -19 -19 -19 -19 -19 -19 -19 -19 -20 -20 -20 -20 -21 -21 -21 -21 -22
-16 -16 -17 -17 -18 -18 -18 -18 -18 -18 -18 -18 -18 -18 -19 -19 -19 -19 -19 -19 -20 -20 -20 -20 -20 -20 -19 -20 -19 -19 -19 -20 -20 -20 -20 -20 -20 -21 -21 -21 -22 -22 -23 -23

GFSNGP_700_temp_078.txt.gz
Temp
-3 -3 -3 -3 -2 -3 -3 -2 -2 0 0 -0 -0 -0 1 2 5 6 6 6 6 5 5 5 5 5 5 4 4 5 5 5 6 6 5 5 5 5 5 5 5 5 5 4
-3 -3 -3 -3 -3 -3 -2 -3 -2 -2 -0 -0 -0 -0 0 1 4 5 5 5 4 4 5 5 5 5 5 5 5 5 5 5 5 5 5 5 5 5 5 5 5 5 5 5
-5 -3 -3 -3 -2 -2 -2 -1 -2 -1 -1 -1 -1 -1 0 2 3 3 4 4 4 4 4 4 4 4 4 5 5 5 5 5 5 5 5 5 5 5 5 5 4 5 5 4
-5 -3 -3 -2 -2 -2 -1 -1 -1 -1 -1 -1 -1 -1 0 1 2 3 3 4 4 4 4 4 4 3 3 4 4 5 5 5 5 5 5 5 5 5 5 5 5 4 4 4
-5 -4 -3 -1 -3 -2 -1 -2 -1 -1 -1 -1 -2 -1 -1 -1 1 2 2 2 3 3 3 3 3 3 3 4 4 4 4 4 4 4 4 4 4 4 4 4 4 4 4 4
-5 -5 -4 -3 -3 -2 -2 -2 -2 -1 -1 -2 -2 -1 -1 -1 -1 0 1 1 2 2 2 3 2 2 2 3 2 3 3 3 3 4 4 4 4 4 4 3 4 4 3 4
-5 -5 -3 -2 -3 -3 -2 -3 -3 -1 -1 -1 -2 -2 -2 -3 -1 -0 0 1 2 2 2 2 2 2 2 2 2 2 2 3 3 3 3 3 3 4 3 3 3 3 3 2
-6 -5 -4 -3 -3 -3 -3 -3 -3 -3 -3 -3 -3 -4 -3 -2 -1 -0 0 0 1 1 1 1 1 0 1 1 1 1 1 2 2 2 2 2 2 2 3 3 3 2 2 2
-4 -4 -4 -3 -3 -3 -3 -4 -4 -3 -3 -4 -4 -4 -3 -2 -2 -2 -1 -1 -0 0 0 0 0 0 0 1 1 1 1 1 1 1 1 1 1 1 1 1 1 1 1 1
-4 -5 -4 -4 -3 -3 -4 -5 -5 -5 -4 -4 -3 -2 -2 -2 -1 -1 -1 -1 -1 -0 0 0 0 0 -0 0 0 -0 -0 0 0 0 0 0 -0 -0 -0 -0 0 0 -0 -1
-5 -6 -5 -4 -5 -5 -5 -5 -5 -5 -5 -4 -3 -2 -2 -2 -2 -2 -2 -1 -1 -1 -1 -1 -1 -1 -1 -1 -1 -1 -1 -1 -1 -1 -1 -0 -1 -1 -2 -2 -1 -1 -1 -1
-5 -5 -6 -6 -6 -7 -5 -6 -5 -4 -4 -4 -3 -3 -3 -3 -3 -2 -2 -2 -2 -2 -2 -1 -1 -1 -1 -1 -1 -1 -1 -1 -1 -1 -1 -1 -1 -2 -3 -3 -2 -2 -2 -3
-6 -6 -6 -6 -5 -6 -6 -5 -4 -4 -4 -4 -4 -3 -3 -3 -3 -3 -3 -3 -3 -2 -2 -2 -2 -2 -2 -2 -2 -2 -2 -2 -2 -2 -3 -3 -3 -4 -4 -3 -3 -4 -4 -5
-6 -7 -7 -6 -6 -5 -5 -5 -5 -5 -4 -4 -4 -4 -4 -4 -4 -4 -4 -4 -4 -4 -4 -4 -4 -4 -3 -3 -3 -3 -3 -3 -3 -4 -4 -4 -5 -5 -6 -6 -7 -7 -7 -8
-7 -7 -6 -6 -6 -6 -5 -5 -5 -5 -5 -5 -5 -5 -5 -5 -4 -4 -4 -4 -5 -5 -5 -5 -5 -5 -5 -5 -5 -5 -5 -6 -6 -6 -7 -7 -7 -7 -8 -9 -9 -9 -10 -10
-7 -6 -6 -6 -6 -6 -5 -5 -5 -5 -5 -6 -6 -5 -5 -5 -6 -6 -6 -7 -7 -6 -6 -6 -7 -7 -7 -7 -7 -8 -8 -8 -8 -9 -9 -9 -9 -9 -10 -10 -11 -11 -11 -11
-8 -8 -8 -7 -6 -6 -6 -6 -6 -6 -6 -6 -6 -6 -6 -7 -7 -8 -8 -8 -8 -8 -8 -8 -9 -9 -9 -9 -10 -10 -10 -10 -10 -11 -11 -11 -11 -11 -12 -12 -12 -12 -12 -13
-7 -7 -7 -7 -7 -7 -7 -7 -7 -7 -7 -7 -7 -7 -8 -8 -8 -9 -9 -10 -10 -10 -11 -11 -11 -11 -11 -11 -12 -12 -12 -12 -12 -12 -12 -12 -12 -12 -12 -13 -13 -13 -13 -13
-7 -7 -7 -7 -7 -8 -8 -8 -9 -9 -9 -9 -9 -10 -10 -11 -11 -11 -12 -12 -12 -12 -13 -13 -13 -13 -13 -13 -13 -13 -13 -13 -13 -13 -13 -13 -13 -13 -13 -13 -13 -13 -14 -14
-8 -8 -8 -9 -9 -9 -10 -10 -10 -11 -11 -11 -12 -12 -12 -13 -13 -13 -14 -14 -14 -14 -14 -14 -14 -14 -14 -14 -14 -14 -14 -13 -13 -13 -14 -14 -14 -14 -14 -14 -15 -15 -15 -16
-9 -10 -10 -10 -11 -11 -11 -11 -11 -12 -12 -13 -13 -14 -14 -14 -14 -14 -14 -14 -14 -14 -14 -14 -15 -15 -15 -14 -14 -14 -14 -14 -14 -14 -15 -15 -15 -15 -16 -16 -16 -16 -16 -17
-11 -11 -11 -12 -12 -12 -12 -12 -13 -13 -13 -14 -14 -14 -15 -15 -15 -15 -15 -15 -15 -15 -15 -15 -15 -15 -15 -15 -15 -15 -15 -16 -16 -16 -16 -16 -17 -17 -17 -17 -17 -17 -18 -18
-12 -12 -13 -13 -13 -13 -14 -14 -14 -14 -14 -15 -15 -15 -15 -15 -15 -16 -16 -16 -16 -16 -16 -16 -16 -16 -16 -16 -17 -17 -17 -17 -17 -17 -17 -18 -18 -18 -18 -18 -18 -18 -18 -19
-13 -14 -14 -15 -15 -15 -15 -15 -16 -16 -16 -16 -16 -16 -16 -16 -16 -16 -16 -17 -17 -17 -17 -17 -17 -17 -18 -18 -18 -18 -18 -18 -18 -18 -18 -19 -19 -19 -19 -19 -19 -19 -19 -20
-14 -15 -15 -15 -16 -16 -16 -16 -17 -17 -17 -17 -17 -18 -17 -17 -17 -17 -18 -18 -18 -18 -18 -18 -19 -19 -19 -19 -19 -19 -19 -19 -19 -19 -19 -19 -19 -19 -19 -19 -20 -20 -20 -21
-15 -16 -16 -16 -16 -16 -17 -17 -17 -17 -18 -18 -18 -18 -19 -19 -19 -19 -19 -19 -19 -20 -20 -20 -20 -20 -20 -20 -20 -20 -20 -19 -19 -19 -19 -20 -20 -20 -20 -20 -21 -21 -21 -21
-15 -16 -17 -17 -18 -18 -18 -19 -19 -19 -19 -19 -19 -19 -19 -19 -20 -20 -20 -20 -20 -21 -21 -21 -21 -21 -20 -20 -20 -20 -20 -20 -20 -20 -20 -21 -21 -21 -21 -21 -21 -22 -22 -22

GFSNGP_700_temp_081.txt.gz
Temp
-3 -3 -3 -3 -3 -3 -4 -3 -3 -1 -2 -1 0 -1 -0 1 2 6 7 8 7 7 6 6 5 5 5 4 5 5 5 5 5 5 5 5 5 5 5 4 4 4 4 4
-4 -3 -3 -4 -2 -3 -3 -3 -4 -3 -2 -1 -1 -1 -0 -0 2 4 5 6 7 7 6 5 5 5 5 5 5 5 5 5 5 5 5 5 5 5 5 5 4 4 4 4
-5 -4 -4 -3 -3 -2 -3 -3 -3 -3 -0 -0 -1 -1 -0 -1 0 1 2 4 5 5 5 5 5 5 4 4 5 5 5 5 5 4 4 4 4 5 5 5 4 4 4 4
-5 -4 -6 -2 -3 -2 -2 -2 -2 -2 -2 -2 -2 -1 -1 -1 -1 -0 -0 2 3 4 4 4 4 4 4 4 4 4 4 4 4 4 5 5 4 4 4 4 4 4 4 4
-6 -5 -4 -3 -2 -3 -3 -3 -2 -1 -1 -1 -1 -0 -1 -1 -1 -1 -1 1 2 2 2 3 3 3 3 4 4 4 4 4 4 4 4 4 4 4 4 4 3 4 3 3
-6 -6 -6 -3 -3 -2 -5 -3 -2 -1 -1 -1 -1 -2 -2 -2 -2 -1 -1 -0 0 1 1 2 2 3 3 3 3 3 3 3 3 4 4 4 4 4 3 3 3 3 2 2
-7 -6 -5 -4 -3 -4 -3 -4 -2 -2 -2 -2 -2 -2 -2 -2 -3 -3 -3 -3 -3 -1 0 1 1 2 2 2 2 2 2 2 2 3 3 3 3 3 3 3 3 3 3 3
-7 -6 -6 -4 -4 -4 -4 -4 -3 -3 -3 -2 -2 -3 -4 -4 -4 -4 -3 -2 -1 -0 1 1 0 0 0 0 1 1 1 1 1 1 1 1 1 2 2 2 2 2 2 3
-5 -6 -6 -5 -4 -4 -4 -4 -4 -4 -4 -4 -4 -4 -5 -5 -3 -3 -3 -3 -1 -1 -0 -0 -0 0 0 1 0 1 1 0 1 1 1 1 1 1 1 1 1 1 1 1
-6 -6 -6 -5 -4 -4 -4 -4 -5 -5 -6 -6 -6 -6 -5 -4 -3 -3 -3 -2 -2 -2 -1 -1 -0 -0 -0 -0 -0 -0 -0 -1 -0 0 0 0 1 1 1 1 1 1 1 0
-5 -6 -6 -5 -5 -5 -5 -5 -6 -6 -5 -5 -5 -4 -4 -3 -3 -3 -3 -3 -2 -2 -2 -2 -2 -1 -1 -1 -1 -1 -1 -1 -1 -1 -1 -1 -1 -1 -1 -1 -1 -1 -2 -2
-6 -6 -6 -6 -6 -6 -6 -6 -6 -5 -5 -5 -4 -4 -4 -4 -4 -3 -3 -3 -3 -2 -2 -2 -2 -2 -2 -2 -2 -2 -2 -1 -1 -1 -1 -1 -1 -1 -2 -2 -3 -3 -3 -3
-6 -6 -6 -6 -7 -7 -7 -7 -6 -5 -5 -4 -4 -4 -4 -4 -4 -4 -4 -3 -3 -3 -3 -3 -3 -3 -3 -3 -3 -3 -3 -3 -3 -3 -3 -3 -3 -3 -3 -3 -4 -4 -4 -4
-7 -7 -7 -7 -7 -7 -6 -6 -6 -5 -5 -5 -5 -4 -4 -4 -4 -4 -4 -4 -4 -4 -4 -4 -3 -3 -3 -4 -4 -4 -4 -4 -4 -5 -5 -5 -5 -6 -6 -7 -7 -7 -7 -7
-7 -7 -7 -7 -6 -6 -6 -6 -6 -5 -5 -5 -5 -5 -5 -5 -5 -5 -5 -5 -5 -5 -5 -5 -5 -5 -5 -6 -6 -6 -6 -6 -6 -7 -7 -7 -7 -8 -8 -9 -9 -9 -9 -10
-7 -7 -7 -7 -6 -6 -6 -6 -6 -6 -6 -6 -6 -6 -6 -5 -5 -5 -6 -6 -6 -6 -6 -6 -7 -7 -7 -8 -8 -8 -8 -8 -9 -9 -9 -9 -10 -10 -10 -10 -11 -11 -11 -11
-7 -6 -7 -7 -7 -7 -7 -7 -7 -7 -7 -7 -7 -7 -7 -7 -7 -7 -8 -8 -9 -9 -9 -9 -9 -9 -10 -10 -10 -10 -11 -11 -11 -11 -11 -12 -12 -12 -12 -12 -12 -12 -12 -12
-7 -7 -8 -8 -8 -8 -8 -7 -7 -8 -8 -8 -8 -9 -9 -9 -9 -10 -10 -11 -11 -11 -11 -11 -11 -11 -12 -12 -12 -12 -13 -13 -13 -13 -13 -13 -13 -13 -13 -13 -13 -13 -13 -13
-8 -8 -8 -9 -9 -9 -9 -9 -9 -9 -10 -10 -10 -10 -11 -11 -12 -12 -12 -13 -13 -13 -13 -13 -13 -13 -13 -14 -14 -14 -14 -13 -13 -13 -13 -13 -13 -13 -13 -13 -13 -13 -13 -14
-9 -10 -10 -10 -10 -10 -10 -10 -11 -11 -11 -11 -11 -12 -12 -12 -13 -13 -13 -14 -14 -14 -14 -14 -14 -14 -14 -14 -14 -14 -14 -14 -13 -13 -13 -13 -13 -14 -14 -14 -14 -15 -15 -15
-10 -10 -10 -11 -11 -12 -12 -12 -12 -12 -13 -13 -13 -13 -13 -14 -14 -14 -14 -14 -14 -14 -14 -14 -15 -15 -15 -15 -15 -14 -14 -14 -14 -15 -15 -15 -15 -15 -16 -16 -16 -16 -16 -17
-11 -11 -12 -12 -12 -12 -13 -13 -13 -13 -14 -14 -14 -14 -14 -14 -15 -15 -15 -15 -15 -15 -15 -15 -15 -15 -15 -15 -15 -15 -15 -16 -16 -16 -16 -16 -17 -17 -17 -17 -17 -17 -18 -18
-12 -12 -12 -13 -13 -13 -13 -14 -14 -14 -15 -15 -15 -15 -16 -16 -16 -16 -16 -16 -16 -16 -16 -16 -16 -16 -16 -17 -17 -17 -17 -17 -17 -18 -18 -18 -18 -18 -18 -18 -18 -18 -18 -19
-12 -13 -13 -14 -14 -15 -15 -15 -16 -16 -16 -16 -17 -17 -17 -17 -17 -17 -17 -17 -17 -17 -17 -18 -18 -18 -18 -18 -18 -18 -19 -19 -19 -19 -19 -19 -19 -19 -19 -19 -19 -19 -19 -19
-14 -14 -15 -15 -15 -16 -16 -17 -17 -17 -18 -18 -18 -18 -18 -18 -18 -18 -18 -18 -18 -19 -19 -19 -19 -19 -19 -20 -20 -20 -20 -20 -20 -20 -20 -19 -19 -19 -19 -19 -20 -20 -20 -20
-14 -15 -15 -16 -16 -16 -17 -17 -17 -18 -18 -18 -18 -19 -19 -19 -19 -19 -19 -19 -19 -20 -20 -20 -20 -20 -20 -20 -20 -20 -20 -20 -20 -20 -20 -20 -20 -20 -20 -20 -20 -21 -21 -21
-15 -15 -16 -16 -17 -17 -18 -18 -18 -19 -19 -19 -19 -19 -20 -20 -20 -20 -21 -21 -21 -21 -21 -21 -21 -21 -21 -21 -21 -21 -21 -20 -20 -20 -20 -20 -20 -21 -21 -21 -21 -22 -22 -22

GFSNGP_700_temp_087.txt.gz
Temp
-3 -4 -3 -3 -3 -3 -3 -3 -4 -2 -3 -0 -1 -2 -1 -0 0 0 1 2 3 7 7 7 6 6 5 5 5 5 5 5 5 5 5 5 4 4 4 3 3 3 2 2
-4 -4 -4 -4 -3 -3 -3 -3 -4 -4 -3 -3 -3 -3 -2 -1 -0 -0 1 1 1 4 6 6 6 6 5 5 5 5 5 5 5 5 5 5 5 5 5 4 4 4 4 4
-5 -5 -4 -4 -4 -4 -4 -3 -4 -4 -3 -3 -3 -3 -2 -2 -2 -1 0 2 2 2 4 5 5 5 5 4 5 5 5 5 5 5 5 5 5 5 5 5 5 4 4 4
-5 -5 -5 -4 -4 -4 -3 -3 -3 -4 -4 -3 -4 -3 -3 -2 -2 -1 -1 1 2 1 2 4 5 4 4 3 3 3 3 4 4 4 5 4 4 4 4 4 4 4 4 3
-7 -6 -5 -5 -5 -4 -5 -4 -5 -4 -3 -2 -4 -3 -3 -2 -2 -1 -2 0 1 2 2 2 3 2 1 1 1 2 2 3 4 4 4 4 4 4 4 4 4 4 4 4
-7 -6 -6 -4 -4 -5 -5 -5 -5 -4 -3 -3 -2 -3 -2 -3 -2 -2 -2 -3 -1 0 1 2 2 1 1 0 1 1 1 3 3 4 4 3 3 3 3 3 3 3 3 3
-7 -7 -6 -5 -5 -5 -5 -6 -6 -5 -4 -3 -4 -3 -3 -3 -3 -3 -2 -2 -4 -2 -2 -1 -0 -0 0 -0 -0 -0 -0 1 2 3 3 3 3 3 3 2 2 2 2 2
-7 -7 -6 -6 -6 -6 -6 -6 -6 -6 -6 -5 -5 -5 -5 -4 -4 -4 -4 -4 -3 -4 -4 -4 -3 -3 -3 -3 -1 -1 -1 0 1 1 1 1 1 1 2 2 1 1 1 1
-7 -7 -6 -6 -7 -7 -6 -6 -5 -6 -6 -6 -6 -6 -6 -6 -6 -5 -5 -5 -5 -4 -4 -4 -4 -4 -4 -4 -3 -2 -1 -1 -1 -0 -1 -1 -0 -0 -0 -0 -0 -0 -0 0
-7 -8 -7 -7 -7 -7 -6 -6 -6 -6 -6 -6 -6 -6 -6 -6 -6 -6 -6 -6 -5 -5 -5 -5 -5 -5 -5 -4 -3 -2 -2 -2 -1 -1 -1 -1 -0 -0 -0 -0 -0 -0 -0 -1
-8 -8 -8 -7 -7 -7 -7 -6 -6 -6 -6 -6 -6 -6 -6 -6 -6 -6 -6 -6 -5 -4 -4 -4 -4 -4 -4 -4 -3 -2 -2 -2 -2 -2 -1 -1 -1 -1 -1 -1 -1 -1 -1 -1
-9 -8 -8 -7 -7 -7 -7 -7 -7 -7 -7 -6 -6 -6 -6 -6 -6 -6 -7 -7 -6 -6 -5 -4 -4 -3 -3 -3 -3 -3 -3 -3 -2 -2 -2 -2 -2 -2 -2 -2 -2 -2 -3 -3
-9 -8 -8 -7 -8 -7 -7 -7 -7 -7 -8 -6 -6 -6 -6 -6 -6 -6 -6 -6 -5 -5 -5 -5 -4 -4 -4 -4 -4 -3 -3 -3 -3 -3 -3 -3 -3 -3 -3 -3 -4 -4 -4 -4
-8 -8 -8 -7 -7 -7 -7 -7 -7 -7 -7 -7 -6 -6 -6 -6 -6 -6 -6 -6 -6 -6 -6 -6 -6 -6 -6 -6 -5 -5 -5 -5 -5 -5 -5 -5 -5 -5 -5 -6 -6 -6 -6 -6
-8 -7 -8 -7 -7 -7 -7 -7 -7 -7 -7 -7 -7 -7 -7 -7 -7 -7 -7 -7 -7 -7 -7 -7 -7 -7 -7 -7 -7 -7 -7 -7 -7 -7 -7 -7 -8 -8 -8 -8 -8 -9 -9 -9
-8 -7 -7 -7 -7 -7 -7 -7 -7 -7 -7 -7 -7 -7 -7 -7 -8 -8 -8 -8 -8 -8 -9 -9 -9 -9 -9 -9 -9 -9 -9 -9 -9 -9 -10 -10 -10 -10 -10 -10 -10 -11 -11 -11
-7 -7 -7 -7 -7 -7 -7 -7 -7 -7 -7 -8 -8 -8 -8 -9 -9 -9 -9 -9 -9 -10 -10 -10 -10 -10 -10 -10 -10 -11 -11 -11 -11 -11 -11 -12 -12 -12 -12 -12 -12 -12 -12 -12
-7 -7 -7 -7 -8 -8 -8 -8 -8 -9 -9 -9 -9 -9 -9 -10 -10 -10 -10 -10 -10 -10 -10 -11 -11 -11 -11 -11 -12 -12 -12 -12 -12 -13 -13 -13 -13 -13 -13 -13 -13 -13 -13 -13
-8 -8 -8 -8 -8 -8 -9 -9 -10 -10 -10 -10 -10 -10 -10 -11 -11 -11 -11 -11 -11 -12 -12 -12 -12 -12 -13 -13 -13 -13 -13 -14 -14 -14 -14 -14 -14 -14 -14 -14 -14 -14 -14 -15
-8 -8 -8 -9 -9 -10 -10 -10 -10 -10 -11 -11 -11 -11 -12 -12 -12 -13 -13 -13 -13 -13 -14 -14 -14 -14 -14 -15 -15 -15 -15 -15 -15 -15 -15 -15 -15 -15 -15 -15 -15 -16 -16 -16
-9 -9 -10 -10 -11 -11 -11 -11 -11 -11 -12 -12 -12 -13 -13 -14 -14 -14 -14 -15 -15 -15 -15 -16 -16 -16 -16 -16 -16 -16 -16 -16 -16 -16 -16 -16 -16 -17 -17 -17 -17 -17 -17 -17
-10 -11 -11 -11 -11 -12 -12 -12 -12 -13 -13 -14 -14 -14 -15 -15 -15 -15 -16 -16 -16 -17 -17 -17 -17 -17 -17 -17 -17 -17 -17 -17 -17 -18 -18 -18 -18 -18 -18 -18 -19 -19 -19 -19
-12 -12 -12 -12 -12 -13 -13 -13 -14 -14 -14 -14 -15 -15 -16 -16 -16 -17 -17 -17 -18 -18 -18 -18 -18 -18 -18 -18 -18 -18 -18 -19 -19 -19 -19 -19 -19 -20 -20 -20 -20 -19 -19 -19
-12 -12 -13 -13 -13 -13 -14 -14 -15 -15 -16 -16 -17 -17 -17 -18 -18 -18 -18 -18 -19 -19 -19 -19 -19 -19 -19 -19 -19 -20 -20 -20 -20 -20 -20 -20 -20 -20 -20 -20 -20 -20 -20 -20
-12 -12 -13 -13 -13 -14 -15 -15 -16 -16 -17 -17 -17 -18 -18 -19 -19 -19 -19 -19 -20 -20 -20 -20 -20 -20 -21 -21 -21 -21 -21 -21 -21 -21 -21 -21 -21 -21 -21 -21 -21 -21 -21 -21
-12 -13 -13 -14 -14 -15 -16 -16 -17 -17 -17 -18 -18 -18 -19 -19 -19 -20 -20 -20 -20 -21 -21 -21 -21 -21 -22 -22 -22 -22 -22 -22 -22 -22 -22 -22 -22 -21 -21 -21 -21 -22 -22 -22
-13 -13 -14 -15 -15 -16 -17 -17 -17 -18 -18 -18 -19 -19 -19 -20 -20 -20 -21 -21 -21 -21 -21 -22 -22 -22 -22 -22 -22 -22 -23 -22 -22 -22 -22 -22 -22 -22 -22 -22 -22 -22 -23 -23